Regional Weather Roundup
Issued by NWS Raleigh/Durham, NC

Home | Current Version | Previous Version | Text Only | Print | Product List | Glossary On
Versions: 1 2 3 4 5 6 7 8 9 10 11 12 13 14 15 16 17 18 19 20 21 22 23 24 25 26 27
000
ASUS42 KRAH 212110
RWRRAH
NORTH CAROLINA WEATHER ROUNDUP
NATIONAL WEATHER SERVICE RALEIGH NC
500 PM EDT SAT OCT 21 2017

NOTE: "FAIR" INDICATES FEW OR NO CLOUDS BELOW 12,000 FEET WITH NO
SIGNIFICANT WEATHER AND/OR OBSTRUCTIONS TO VISIBILITY.

NCZ001-053-055-056-065-067-212200-
WESTERN NORTH CAROLINA

CITY           SKY/WX    TMP DP  RH WIND       PRES   REMARKS
ASHEVILLE      CLOUDY    71  48  43 SE7       30.33R
JEFFERSON      CLOUDY    64  47  53 SE6       30.36S
HICKORY        MOSUNNY   74  50  42 CALM      30.30S
RUTHERFORDTON  CLOUDY    75  47  36 SE3       30.31S
MOUNT AIRY     MOSUNNY   74  48  38 CALM      30.33S
BOONE          CLOUDY    65  44  44 S5        30.38R
$$

NCZ021-022-025-041-071-084-088-212200-
CENTRAL NORTH CAROLINA

CITY           SKY/WX    TMP DP  RH WIND       PRES   REMARKS
CHARLOTTE      PTSUNNY   76  49  38 E7        30.30S
GREENSBORO     CLOUDY    74  51  44 SE7       30.31R
WINSTON-SALEM  MOSUNNY   76  50  40 SE6       30.31S
RALEIGH-DURHAM CLOUDY    76  51  41 SE6       30.31S
FORT BRAGG     SUNNY     78  49  36 SE5       30.28S
FAYETTEVILLE   SUNNY     78  53  41 E5        30.28S
BURLINGTON     CLOUDY    77  49  37 SE5       30.30S
LAURINBURG     CLOUDY    80  49  33 SE7       30.29S
$$

NCZ011-015-027-028-043-044-047-080-103-212200-
NORTHEASTERN NORTH CAROLINA

CITY           SKY/WX    TMP DP  RH WIND       PRES   REMARKS
ROCKY MT-WILSO SUNNY     76  57  51 CALM      30.30S
GREENVILLE     SUNNY     77  54  44 S3        30.31R
WASHINGTON     SUNNY     77  54  45 SE3       30.31R
ELIZABETH CITY SUNNY     73  54  51 E7        30.32R
MANTEO         SUNNY    N/A N/A N/A E6        30.33R
CAPE HATTERAS  SUNNY     74  61  63 VRB3      30.32R
$$

NCZ078-087-090-091-093-098-101-212200-
SOUTHEASTERN NORTH CAROLINA

CITY           SKY/WX    TMP DP  RH WIND       PRES   REMARKS
LUMBERTON      CLOUDY    79  51  37 SE6       30.28S
GOLDSBORO      SUNNY     79  50  35 NE5       30.28S
KENANSVILLE    SUNNY     77  50  38 E3        30.30R
NEW BERN       SUNNY     76  54  46 SE5       30.31S
CHERRY POINT   SUNNY     75  56  51 E8        30.32R
BEAUFORT       SUNNY     74  58  57 E6        30.31R
JACKSONVILLE   SUNNY     76  57  51 SE7       30.30R
WILMINGTON     CLOUDY    75  58  55 E7        30.30R
$$





USA.gov is the U.S. government's official web portal to all federal, state and local government web resources and services.